Regional Weather Roundup
Issued by NWS

Home | Current Version | Previous Version | Text Only | Print | Product List | Glossary Off
Versions: 1 2 3 4 5 6 7 8 9 10 11 12 13 14 15 16 17 18 19 20 21 22 23 24 25 26 27 28 29 30 31 32 33 34 35 36 37 38 39 40 41 42 43 44 45 46 47 48 49 50

000
ASUS43 KOAX 292002
RWRNE

WEATHER ROUNDUP FOR NEBRASKA
NATIONAL WEATHER SERVICE OMAHA NE
300 PM CDT SAT APR 29 2017

NOTES: SATELLITE DATA IS BEING USED TO AUGMENT CLOUD COVER ABOVE
       12000 FEET.
       "FAIR" INDICATES FEW OR NO CLOUDS BELOW 12,000 FEET WITH NO
       SIGNIFICANT WEATHER AND/OR OBSTRUCTIONS TO VISIBILITY.

  * THESE STATIONS DO NOT REPORT WEATHER SUCH AS RAIN...SNOW OR FOG.

NEZ001>004-019>022-054>056-292100-
NEBRASKA PANHANDLE

CITY           SKY/WX    TMP DP  RH WIND       PRES   REMARKS
SCOTTSBLUFF    PTSUNNY   43  23  45 N20G25    30.22F
ALLIANCE       CLOUDY    47  20  34 N17G28    30.17F
CHADRON        SUNNY     49  24  37 N10       30.23F
KIMBALL        CLOUDY    40  22  48 N21G26    30.17S WCI  30
SIDNEY         CLOUDY    43  23  45 N23G31    30.16S
$$

NEZ057>060-069>072-079>082-292100-
SOUTHWEST NEBRASKA

CITY           SKY/WX    TMP DP  RH WIND       PRES   REMARKS
NORTH PLATTE   CLOUDY    47  25  42 NE20G25   30.13F
IMPERIAL       CLOUDY    44  24  45 NE23G37   30.11F
LEXINGTON      LGT RAIN  40  34  77 N18G26    30.09F WCI  31
MCCOOK         LGT RAIN  40  35  83 N18G31    30.08F WCI  31
OGALLALA       CLOUDY    48  20  33 N23G30    30.14S
$$

NEZ005>010-023>029-035>040-094-292100-
NORTH CENTRAL NEBRASKA

CITY           SKY/WX    TMP DP  RH WIND       PRES   REMARKS
VALENTINE      CLOUDY    53  11  18 NE18G26   30.22R
AINSWORTH      MOSUNNY   50  23  35 NE23G29   30.19F
BROKEN BOW     LGT RAIN  46  29  51 NE25G32   30.13F
O`NEILL        CLOUDY    51  24  35 NE22      30.19F
ORD            LGT RAIN  45  28  51 NE18G29   30.13F
THEDFORD       CLOUDY    50  21  32 NE18G29   30.17F
$$

NEZ041-046>049-061>064-073>077-083>087-292100-
SOUTH CENTRAL NEBRASKA

CITY           SKY/WX    TMP DP  RH WIND       PRES   REMARKS
GRAND ISLAND   CLOUDY    45  33  63 N26G37    30.04F
AURORA         CLOUDY    43  34  69 N28G37    30.01F
HASTINGS       LGT RAIN  41  35  79 N29G38    30.02F
HEBRON         CLOUDY    43  38  85 N21G33    29.95R
HOLDREGE       CLOUDY    42  33  70 N26G39    30.02F
KEARNEY *      CLOUDY    45  30  57 N25G37    30.04F
YORK           CLOUDY    43  37  81 NE37G44   29.99F
$$

NEZ011>018-030>034-042>045-292100-
NORTHEAST NEBRASKA

CITY           SKY/WX    TMP DP  RH WIND       PRES   REMARKS
NORFOLK        CLOUDY    46  29  51 NE16G28   30.10F
ALBION         CLOUDY    47  30  51 NE15G25   30.13F
BLAIR          CLOUDY    45  37  73 NE29G39   29.97F
FREMONT        CLOUDY    46  36  69 N15G28    30.03F
TEKAMAH        LGT RAIN  47  37  68 NE28      30.05F
WAYNE          CLOUDY    47  32  55 NE22G29   30.12F
$$

NEZ050>053-065>068-078-088>093-292100-
SOUTHEAST NEBRASKA

CITY           SKY/WX    TMP DP  RH WIND       PRES   REMARKS
LINCOLN        CLOUDY    45  38  76 NE28G37   29.96F
OMAHA EPPLEY   CLOUDY    46  37  71 NE28G39   30.00F
BEATRICE       CLOUDY    44  42  92 NE23G35   29.91R
FALLS CITY     CLOUDY    45  43  93 NE26G47   29.75F
NEBRASKA CITY  DRIZZLE   43  42  99 NE29G38   29.87F
PLATTSMOUTH    CLOUDY    43  37  80 NE29G40   29.91F
$$

NEZ044-045-051>053-067-292100-
OMAHA AREA

CITY           SKY/WX    TMP DP  RH WIND       PRES   REMARKS
OMAHA EPPLEY   CLOUDY    46  37  71 NE28G39   30.00F
BLAIR          CLOUDY    45  37  73 NE29G39   29.97F
FREMONT        CLOUDY    46  36  69 N15G28    30.03F
MILLARD        CLOUDY    46  38  74 NE17G26   29.97F
OFFUTT AFB     LGT RAIN  45  37  76 NE17G28   29.93F
PLATTSMOUTH    CLOUDY    43  37  80 NE29G40   29.91F
WAHOO          CLOUDY    45  36  68 NE32G39   29.98F
$$



USA.gov is the U.S. government's official web portal to all federal, state and local government web resources and services.